Home > Weather > Kralendijk > Past weeks

Flag for Caribbean Netherlands Weather for the Past 2 Weeks in Kralendijk, Bonaire, Caribbean Netherlands

Now
79 °F

Passing clouds.


Feels Like: 82 °F
Forecast: 78 / 85 °F
Wind: 17 mph from East

Location: Flamingo Airport - Bonaire

Current Time: Feb 11, 2016 at 10:01:56 PM

Latest Report: Feb 11, 2016 at 8:55 PM


Visibility: N/A

Pressure: 29.95 "Hg

Humidity: 84%

Dew point: 73 °F

Location of KralendijkLocation

Historic Weather in Kralendijk — Graph

°F

Kralendijk Temperature Yesterday

Maximum temperature yesterday: 84 °F (at 12:55 PM)
Minimum temperature yesterday: 79 °F (at 12:55 AM)
Average temperature yesterday: 80 °F

High & Low Weather Summary for the Past Weeks

 TemperatureHumidityPressure
High86 °F (Jan 28, 1:55 PM)89% (Feb 5, 5:55 AM)30.04 "Hg (Feb 5, 5:55 AM)
Low73 °F (Feb 5, 5:55 AM)55% (Feb 5, 11:55 AM)29.83 "Hg (Feb 7, 3:55 PM)
Average80 °F75%29.93 "Hg
* Reported Jan 27 7:55 PM — Feb 11 7:55 PM, Kralendijk, Weather by CustomWeather, © 2016

Note: Actual official high and low records may vary slightly from our data, if they occured in-between our weather recording intervals... More about our weather records

Advertising

Kralendijk Weather History for the Previous 24 Hours

 ConditionsComfort  
Time TempWeatherWind HumidityBarometerVisibility
7:55 PM
Thu, Feb 11
79 °FClear.16 mph84%29.95 "Hg10 mi
6:55 PM81 °FPassing clouds.18 mph79%29.92 "HgN/A
5:55 PM81 °FPassing clouds.18 mph79%29.92 "HgN/A
4:55 PM82 °FScattered clouds.18 mph70%29.92 "HgN/A
3:55 PM82 °FScattered clouds.16 mph70%29.92 "HgN/A
2:55 PM84 °FPartly sunny.17 mph66%29.95 "HgN/A
1:55 PM84 °FPassing clouds.18 mph66%29.95 "HgN/A
12:55 PM84 °FPassing clouds.17 mph66%29.98 "HgN/A
11:55 AM86 °FScattered clouds.16 mph62%30.01 "HgN/A
10:55 AM84 °FBroken clouds.16 mph70%30.04 "HgN/A
9:55 AM82 °FPassing clouds.18 mph70%30.04 "HgN/A
8:55 AM82 °FPassing clouds.17 mph74%30.04 "HgN/A
7:55 AM81 °FWarm.15 mph74%30.01 "HgN/A
6:55 AM79 °FWarm.12 mph79%30.01 "HgN/A
5:55 AM79 °FPassing clouds.13 mph79%29.98 "HgN/A
4:55 AM79 °FPassing clouds.16 mph84%29.95 "HgN/A
3:55 AM79 °FPassing clouds.15 mph84%29.95 "HgN/A
2:55 AM79 °FPassing clouds.15 mph84%29.95 "HgN/A
1:55 AM79 °FPassing clouds.17 mph79%29.98 "HgN/A
12:55 AM79 °FPassing clouds.16 mph84%29.98 "HgN/A
11:55 PM
Wed, Feb 10
79 °FPassing clouds.17 mph84%29.98 "HgN/A
10:55 PM79 °FWarm.16 mph84%29.98 "HgN/A
Weather by CustomWeather, © 2016

See weather overviewHow to use our weather pages